Weather History for Fort Leonard Wood, MO

Change the Weather History Date:

Saturday, September 15, 2012

  Actual Average Record
Temperature  
Mean Temperature 58 °F -  
Max Temperature 59 °F 77 °F 86 °F (1997)
Min Temperature 57 °F 58 °F 41 °F (2011)
Degree Days  
Heating Degree Days 7    
Growing Degree Days 8 (Base 50)    
Moisture  
Dew Point 58 °F    
Average Humidity 100    
Maximum Humidity 100    
Minimum Humidity 94    
Precipitation  
Precipitation 0.02 in - - ()
Sea Level Pressure  
Sea Level Pressure 30.18 in    
Wind  
Wind Speed 4 mph (ENE)    
Max Wind Speed 9 mph    
Max Gust Speed -    
Visibility 10 miles    
Events Rain    
Averages and records for this station are not official NWS values.
T = Trace of Precipitation, MM = Missing Value Source: NWS Daily Summary

Daily Weather History Graph

Daily Weather History Graph

Search for Another Location

Airport:

Trip Planner

Search our weather history database for the weather conditions in past years. The results will help you decide how hot, cold, wet, or windy it might be!

Date:

Astronomy

Sep. 15, 2012 Rise Set
Actual Time 6:50 AM CDT 7:15 PM CDT
Civil Twilight 6:24 AM CDT 7:41 PM CDT
Nautical Twilight 5:53 AM CDT 8:12 PM CDT
Astronomical Twilight 5:22 AM CDT 8:44 PM CDT
Moon 6:21 AM CDT (9/15) 6:47 PM CDT (9/15)
Length of Visible Light 13h 17m
Length of Day
12h 24m
Waning Crescent, 0% of the Moon is Illuminated
Sep 15
Waning Crescent
Sep 15
New
Sep 22
First Quarter
Sep 29
Full
Oct 8
Last Quarter

Hourly Weather History & Observations

Time (CDT) Temp. Dew Point Humidity Pressure Visibility Wind Dir Wind Speed Gust Speed Precip Events Conditions
12:55 AM 58.6 °F 58.6 °F 100% 30.27 in 10.0 mi East 3.5 mph - N/A   Mostly Cloudy
1:55 AM 57.9 °F 57.9 °F 100% 30.27 in 10.0 mi Calm Calm - N/A   Overcast
2:55 AM 57.6 °F 57.6 °F 100% 30.26 in 10.0 mi NNE 3.5 mph - N/A   Overcast
3:55 AM 57.7 °F 57.7 °F 100% 30.25 in 10.0 mi Calm Calm - N/A   Overcast
4:01 AM 57.2 °F 57.2 °F 100% 30.25 in 10.0 mi Calm Calm - N/A   Overcast
4:25 AM 57.2 °F 57.2 °F 100% 30.25 in 10.0 mi Calm Calm - N/A   Overcast
4:36 AM 57.2 °F 57.2 °F 100% 30.25 in 10.0 mi Calm Calm - N/A   Overcast
4:55 AM 58.1 °F 58.1 °F 100% 30.25 in 10.0 mi ENE 4.6 mph - N/A   Overcast
5:36 AM 59.0 °F 59.0 °F 100% 30.25 in 10.0 mi ENE 4.6 mph - N/A   Light Drizzle
5:55 AM 58.6 °F 58.3 °F 99% 30.25 in 10.0 mi ENE 4.6 mph - 0.00 in   Light Drizzle
6:21 AM 59.0 °F 59.0 °F 100% 30.25 in 10.0 mi ENE 5.8 mph - N/A   Overcast
6:39 AM 59.0 °F 57.2 °F 94% 30.25 in 10.0 mi East 4.6 mph - N/A   Light Drizzle
6:55 AM 58.6 °F 57.7 °F 97% 30.25 in 10.0 mi East 4.6 mph - 0.02 in Rain Light Rain
6:58 AM 59.0 °F 57.2 °F 94% 30.25 in 10.0 mi East 5.8 mph - N/A Rain Light Rain
7:00 AM 59.0 °F 57.2 °F 94% 30.25 in 10.0 mi East 4.6 mph - N/A Rain Light Rain
7:55 AM 57.9 °F 57.6 °F 99% 30.26 in 6.0 mi East 5.8 mph - 0.00 in Rain Light Rain
8:55 AM 57.9 °F 57.7 °F 99% 30.26 in 8.0 mi ENE 5.8 mph - 0.00 in Rain Light Rain
9:00 AM 57.2 °F 57.2 °F 100% 30.26 in 10.0 mi ENE 5.8 mph - N/A Rain Light Rain
9:35 AM 57.2 °F 57.2 °F 100% 30.25 in 10.0 mi East 8.1 mph - N/A Rain Light Rain
9:55 AM 57.9 °F 57.4 °F 98% 30.26 in 9.0 mi East 5.8 mph - 0.00 in Rain Light Rain
10:55 AM 57.6 °F 57.4 °F 99% 30.25 in 7.0 mi ESE 8.1 mph - 0.00 in Rain Light Rain
11:55 AM 57.0 °F 56.5 °F 98% 30.25 in 8.0 mi ESE 6.9 mph - 0.00 in Rain Light Rain
12:00 PM 57.2 °F 57.2 °F 100% 30.25 in 7.0 mi ESE 8.1 mph - N/A Rain Light Rain
12:55 PM 57.2 °F 57.2 °F 100% 30.23 in 8.0 mi NE 5.8 mph - 0.00 in Rain Light Rain
1:42 PM 57.2 °F 57.2 °F 100% 30.22 in 10.0 mi NE 6.9 mph - N/A Rain Light Rain
2:32 PM 57.2 °F 57.2 °F 100% 30.17 in 6.0 mi NE 9.2 mph - N/A Rain Light Rain
2:55 PM 57.4 °F 57.4 °F 100% 30.19 in 10.0 mi NNE 6.9 mph - 0.00 in Rain Light Rain
3:55 PM 57.6 °F 57.6 °F 100% 30.18 in 6.0 mi ENE 4.6 mph - 0.00 in Rain Light Rain
4:07 PM 57.2 °F 57.2 °F 100% 30.19 in 10.0 mi NNE 3.5 mph - N/A   Light Drizzle
4:13 PM 57.2 °F 57.2 °F 100% 30.19 in 10.0 mi Calm Calm - N/A   Light Drizzle
4:17 PM 57.2 °F 57.2 °F 100% 30.18 in 10.0 mi ENE 3.5 mph - N/A   Light Drizzle
4:21 PM 57.2 °F 57.2 °F 100% 30.18 in 10.0 mi East 4.6 mph - N/A   Light Drizzle
4:28 PM 57.2 °F 57.2 °F 100% 30.18 in 10.0 mi East 8.1 mph - N/A   Overcast
4:40 PM 59.0 °F 59.0 °F 100% 30.17 in 10.0 mi East 5.8 mph - N/A   Overcast
4:55 PM 58.3 °F 58.3 °F 100% 30.15 in 10.0 mi East 5.8 mph - 0.00 in   Overcast
5:15 PM 59.0 °F 59.0 °F 100% 30.14 in 10.0 mi ENE 5.8 mph - N/A   Overcast
5:27 PM 59.0 °F 59.0 °F 100% 30.17 in 10.0 mi NW 4.6 mph - N/A   Overcast
5:35 PM 59.0 °F 59.0 °F 100% 30.17 in 10.0 mi Calm Calm - N/A   Overcast
5:36 PM 59.0 °F 59.0 °F 100% 30.17 in 10.0 mi Calm Calm - N/A   Light Drizzle
5:50 PM 59.0 °F 59.0 °F 100% 30.15 in 10.0 mi ESE 5.8 mph - N/A   Overcast
5:55 PM 59.0 °F 59.0 °F 100% 30.15 in 10.0 mi East 5.8 mph - 0.00 in   Overcast
6:04 PM 59.0 °F 59.0 °F 100% 30.16 in 10.0 mi NE 3.5 mph - N/A   Overcast
6:15 PM 59.0 °F 59.0 °F 100% 30.15 in 10.0 mi ENE 4.6 mph - N/A   Overcast
6:19 PM 59.0 °F 59.0 °F 100% 30.15 in 10.0 mi ENE 6.9 mph - N/A   Overcast
6:31 PM 59.0 °F 59.0 °F 100% 30.14 in 10.0 mi ENE 5.8 mph - N/A   Overcast
6:33 PM 59.0 °F 59.0 °F 100% 30.14 in 10.0 mi ENE 6.9 mph - N/A   Overcast
6:55 PM 58.6 °F 58.6 °F 100% 30.14 in 10.0 mi NE 4.6 mph - N/A   Overcast
7:02 PM 59.0 °F 59.0 °F 100% 30.14 in 10.0 mi ENE 5.8 mph - N/A   Overcast
7:09 PM 59.0 °F 59.0 °F 100% 30.14 in 10.0 mi East 5.8 mph - N/A   Overcast
7:11 PM 59.0 °F 59.0 °F 100% 30.14 in 10.0 mi East 5.8 mph - N/A   Overcast
7:13 PM 59.0 °F 59.0 °F 100% 30.14 in 10.0 mi East 5.8 mph - N/A   Overcast
7:23 PM 59.0 °F 59.0 °F 100% 30.13 in 10.0 mi East 5.8 mph - N/A   Overcast
7:38 PM 59.0 °F 59.0 °F 100% 30.13 in 10.0 mi East 5.8 mph - N/A   Overcast
7:48 PM 59.0 °F 59.0 °F 100% 30.13 in 10.0 mi East 4.6 mph - N/A   Overcast
7:55 PM 58.5 °F 58.5 °F 100% 30.13 in 10.0 mi ENE 5.8 mph - N/A   Overcast
8:03 PM 59.0 °F 59.0 °F 100% 30.13 in 10.0 mi ENE 5.8 mph - N/A   Overcast
8:31 PM 59.0 °F 59.0 °F 100% 30.14 in 10.0 mi ENE 4.6 mph - N/A   Overcast
8:45 PM 59.0 °F 59.0 °F 100% 30.14 in 10.0 mi East 3.5 mph - N/A   Overcast
8:55 PM 58.3 °F 58.3 °F 100% 30.14 in 10.0 mi Calm Calm - N/A   Overcast
9:02 PM 59.0 °F 59.0 °F 100% 30.14 in 10.0 mi Calm Calm - N/A   Overcast
9:41 PM 59.0 °F 59.0 °F 100% 30.14 in 10.0 mi Calm Calm - N/A   Overcast
9:55 PM 58.5 °F 58.5 °F 100% 30.14 in 10.0 mi East 3.5 mph - N/A   Overcast
9:56 PM 59.0 °F 59.0 °F 100% 30.14 in 10.0 mi East 3.5 mph - N/A   Overcast
10:37 PM 59.0 °F 59.0 °F 100% 30.14 in 10.0 mi Calm Calm - N/A   Overcast
10:41 PM 59.0 °F 59.0 °F 100% 30.14 in 10.0 mi Calm Calm - N/A   Overcast
10:55 PM 58.5 °F 58.5 °F 100% 30.14 in 10.0 mi NNE 3.5 mph - N/A   Overcast
11:06 PM 59.0 °F 59.0 °F 100% 30.14 in 10.0 mi NNE 3.5 mph - N/A   Overcast
11:15 PM 59.0 °F 59.0 °F 100% 30.14 in 10.0 mi NNE 3.5 mph - N/A   Overcast
11:16 PM 59.0 °F 59.0 °F 100% 30.14 in 10.0 mi NNE 3.5 mph - N/A   Overcast
11:28 PM 59.0 °F 59.0 °F 100% 30.13 in 10.0 mi NNE 3.5 mph - N/A   Overcast
11:33 PM 59.0 °F 59.0 °F 100% 30.13 in 10.0 mi NE 3.5 mph - N/A   Overcast
11:55 PM 58.3 °F 58.3 °F 100% 30.13 in 10.0 mi NNE 3.5 mph - N/A   Overcast